Location: Im Fang
(46.6019°N, 7.2397°E)
Time: 04:32:52
(UTC+00:00)

Cosmos 2082 - Pass Details

Date: 08 December 2019
Orbit: 834 x 855 km, 71.0° (Epoch: 24 January)

Event Time Altitude Azimuth Distance (km) Brightness Sun altitude
Exits shadow 04:57:31 36° 311° (NW) 1,310 4.2 -20.5°
Drops below altitude 10° 05:02:30 10° 13° (NNE) 2,455 6.1 -19.6°
Sets 05:05:09 0° 23° (NNE) 3,393 7.0 -19.2°
